CW5834 Weather Reports


time (UTC)temp
C
wind
direction
speed
KPH
gust
KPH
rain 1hr
cm
rain 24hr
cm
rain mn
cm
humidity
%
barometer
mb
20210920060522 22 0.0 0.0 0.00 0.25 0.00 91 1021.0
20210920055522 22 0.0 0.0 0.00 0.25 0.00 91 1020.9
20210920054517 22 135 1.6 8.0 0.00 0.25 0.00 91 1021.0
20210920053522 22 0.0 0.0 0.00 0.25 0.00 93 1020.9
20210920052522 22 0.0 0.0 0.00 0.25 0.00 93 1020.8
20210920051522 22 0.0 0.0 0.00 0.25 0.00 94 1020.9
20210920050522 21 0.0 0.0 0.00 0.25 0.00 95 1021.0
20210920045522 21 0.0 0.0 0.00 0.25 0.00 96 1020.9
20210920044517 21 0.0 0.0 0.00 0.25 0.00 97 1021.0
20210920043517 20 0.0 0.0 0.00 0.25 0.00 97 1020.9
20210920042522 20 0.0 0.0 0.00 0.25 0.00 97 1021.1
20210920041522 20 0.0 0.0 0.00 0.25 0.00 97 1021.0
20210920040522 20 0.0 0.0 0.00 0.25 0.00 97 1021.0
20210920035520 20 0.0 0.0 0.00 0.25 0.20 97 1021.1
20210920034520 20 0.0 0.0 0.00 0.25 0.20 97 1021.2
20210920033520 20 0.0 0.0 0.00 0.25 0.20 97 1021.2
20210920032520 20 0.0 0.0 0.00 0.25 0.20 97 1021.1
20210920031520 20 0.0 0.0 0.00 0.25 0.20 97 1021.0
20210920030515 20 0.0 0.0 0.00 0.25 0.20 97 1020.9
20210920025520 20 0.0 0.0 0.00 0.25 0.20 97 1020.9
20210920024520 20 0.0 0.0 0.00 0.25 0.20 97 1020.9
20210920023520 20 0.0 0.0 0.00 0.25 0.20 97 1020.8
20210920022520 20 0.0 0.0 0.00 0.25 0.20 97 1020.8
20210920021520 20 0.0 0.0 0.00 0.25 0.20 97 1020.8
20210920020522 20 0.0 0.0 0.00 0.25 0.20 97 1020.8
20210920015522 20 0.0 0.0 0.00 0.25 0.20 97 1020.6
20210920014522 20 0.0 0.0 0.00 0.25 0.20 97 1020.5
20210920013522 20 0.0 0.0 0.00 0.25 0.20 97 1020.4
20210920012522 20 0.0 0.0 0.00 0.25 0.20 97 1020.4
20210920011517 20 0.0 0.0 0.00 0.25 0.20 97 1020.3
20210920010517 20 0.0 0.0 0.00 0.25 0.20 97 1020.4
20210920005522 20 0.0 0.0 0.00 0.25 0.20 97 1020.3
20210920004522 20 0.0 0.0 0.00 0.25 0.20 97 1020.2
20210920003522 21 0.0 0.0 0.00 0.25 0.20 96 1020.2
20210920002520 20 0.0 0.0 0.00 0.25 0.20 96 1020.0
20210920001522 20 0.0 0.0 0.00 0.25 0.20 96 1019.8
20210920000517 21 0.0 0.0 0.00 0.25 0.20 96 1019.7
20210919235522 21 0.0 0.0 0.00 0.25 0.20 96 1019.5
20210919234522 21 0.0 0.0 0.00 0.25 0.20 96 1019.5
20210919233522 21 0.0 0.0 0.00 0.25 0.20 96 1019.5
20210919232522 21 0.0 0.0 0.00 0.25 0.20 96 1019.6
20210919231522 21 0.0 0.0 0.03 0.25 0.20 96 1019.6
20210919230517 21 0.0 0.0 0.05 0.25 0.20 96 1019.7
20210919225516 21 0.0 0.0 0.13 0.25 0.20 96 1019.7
20210919224522 21 0.0 0.0 0.18 0.25 0.20 96 1020.0
20210919223522 21 0.0 0.0 0.20 0.25 0.20 96 1019.9
20210919222522 21 0.0 0.0 0.20 0.25 0.20 96 1020.0
20210919221522 22 0.0 0.0 0.20 0.20 0.18 95 1020.0
20210919220522 22 0.0 0.0 0.18 0.18 0.15 95 1020.1
20210919215517 22 0.0 0.0 0.13 0.13 0.10 95 1020.2
20210919214522 22 0.0 0.0 0.05 0.05 0.05 94 1020.2
20210919213522 22 0.0 0.0 0.03 0.03 0.03 93 1020.0
20210919212522 22 0.0 0.0 0.03 0.03 0.03 92 1020.1
20210919211521 22 0.0 9.7 0.00 0.00 0.00 91 1020.3
20210919210522 23 68 1.6 11.3 0.00 0.00 0.00 90 1020.2
20210919205521 24 45 1.6 9.7 0.00 0.00 0.00 88 1020.3
20210919204516 25 113 6.4 20.9 0.00 0.00 0.00 80 1020.2
20210919203521 26 0.0 0.0 0.00 0.00 0.00 83 1020.0
20210919202522 27 0.0 0.0 0.00 0.00 0.00 79 1020.0
20210919201521 27 0.0 0.0 0.00 0.00 0.00 77 1019.8
20210919200521 27 0.0 0.0 0.00 0.00 0.00 75 1019.6
20210919195521 28 0.0 3.2 0.00 0.00 0.00 74 1019.8
20210919194516 28 0.0 0.0 0.00 0.00 0.00 76 1020.1
20210919193521 28 0.0 0.0 0.00 0.00 0.00 78 1020.3
20210919192521 28 0.0 0.0 0.00 0.00 0.00 76 1020.2
20210919191521 28 0.0 0.0 0.00 0.00 0.00 75 1020.5
20210919190522 28 0.0 0.0 0.00 0.00 0.00 73 1020.6
20210919185521 28 0.0 0.0 0.00 0.00 0.00 75 1020.9
20210919184521 28 0.0 0.0 0.00 0.00 0.00 73 1020.9
20210919183516 29 0.0 11.3 0.00 0.00 0.00 72 1021.0
20210919182521 28 180 1.6 9.7 0.00 0.00 0.00 76 1021.2
20210919181521 28 0.0 6.4 0.00 0.00 0.00 73 1021.3
20210919180521 28 0.0 0.0 0.00 0.00 0.00 73 1021.4
20210919175521 28 0.0 0.0 0.00 0.00 0.00 76 1021.5
20210919174521 27 0.0 0.0 0.00 0.00 0.00 78 1021.6
20210919173516 26 0.0 0.0 0.00 0.00 0.00 78 1021.7
20210919172516 26 0.0 1.6 0.00 0.00 0.00 78 1021.8
20210919171521 26 0.0 0.0 0.00 0.00 0.00 80 1021.9
20210919170521 26 0.0 0.0 0.00 0.00 0.00 83 1021.9
20210919165521 26 0.0 6.4 0.00 0.00 0.00 80 1022.0
20210919164519 26 0.0 0.0 0.00 0.00 0.00 80 1022.1
20210919163521 26 0.0 6.4 0.00 0.00 0.00 78 1022.2
20210919162516 27 0.0 0.0 0.00 0.00 0.00 78 1022.1
20210919161521 26 0.0 0.0 0.00 0.00 0.00 79 1022.2
20210919160521 26 0.0 0.0 0.00 0.00 0.00 78 1022.3
20210919155521 27 0.0 6.4 0.00 0.00 0.00 77 1022.4
20210919154521 27 0.0 4.8 0.00 0.00 0.00 80 1022.4
20210919153521 27 0.0 0.0 0.00 0.00 0.00 76 1022.5
20210919152516 27 0.0 0.0 0.00 0.00 0.00 82 1022.5
20210919151516 26 0.0 0.0 0.00 0.00 0.00 79 1022.5
20210919150521 26 0.0 0.0 0.00 0.00 0.00 80 1022.6
20210919145521 25 0.0 0.0 0.00 0.00 0.00 83 1022.4
20210919144521 25 0.0 0.0 0.00 0.00 0.00 84 1022.4
20210919143521 25 0.0 0.0 0.00 0.00 0.00 84 1022.4
20210919142521 25 0.0 0.0 0.00 0.00 0.00 85 1022.4
20210919141516 25 0.0 0.0 0.00 0.00 0.00 87 1022.4
20210919140521 24 0.0 0.0 0.00 0.00 0.00 87 1022.2
20210919135521 23 0.0 0.0 0.00 0.00 0.00 90 1022.1
20210919134521 23 0.0 0.0 0.00 0.00 0.00 90 1022.0
20210919133521 22 0.0 0.0 0.00 0.00 0.00 94 1022.0
20210919132521 22 0.0 0.0 0.00 0.00 0.00 95 1021.8
20210919131516 21 0.0 0.0 0.00 0.00 0.00 96 1021.8
20210919130516 21 0.0 0.0 0.00 0.00 0.00 97 1021.7
20210919125521 21 0.0 0.0 0.00 0.00 0.00 97 1021.6
20210919124521 21 0.0 0.0 0.00 0.00 0.00 98 1021.6
20210919123521 21 0.0 0.0 0.00 0.00 0.00 98 1021.6
20210919122521 20 0.0 0.0 0.00 0.03 0.00 98 1021.5
20210919121521 20 0.0 0.0 0.00 0.03 0.00 98 1021.6
20210919120515 20 0.0 1.6 0.00 0.05 0.00 98 1021.4
20210919115521 20 0.0 0.0 0.00 0.05 0.00 98 1021.3
20210919114521 20 0.0 0.0 0.00 0.05 0.00 98 1021.3
20210919113521 20 0.0 0.0 0.00 0.05 0.00 98 1021.3
20210919112521 20 0.0 0.0 0.00 0.05 0.00 98 1021.3
20210919111521 20 0.0 0.0 0.00 0.05 0.00 98 1021.3
20210919110521 20 0.0 0.0 0.00 0.05 0.00 98 1021.4
20210919105516 20 0.0 0.0 0.00 0.13 0.00 98 1021.4
20210919104520 20 0.0 0.0 0.00 0.36 0.00 98 1021.3
20210919103521 20 0.0 0.0 0.00 0.51 0.00 98 1021.3
20210919102521 20 0.0 0.0 0.00 0.53 0.00 98 1021.5
20210919101520 20 0.0 0.0 0.00 0.53 0.00 98 1021.4
20210919100520 20 0.0 0.0 0.00 0.53 0.00 98 1021.4
20210919095515 20 0.0 0.0 0.00 0.53 0.00 98 1021.5
20210919094515 20 0.0 0.0 0.00 0.53 0.00 98 1021.5
20210919093521 20 0.0 0.0 0.00 0.53 0.00 98 1021.5
20210919092520 20 0.0 0.0 0.00 0.53 0.00 98 1021.5
20210919091521 20 0.0 0.0 0.00 0.53 0.00 98 1021.3
20210919090519 20 0.0 0.0 0.00 0.53 0.00 98 1021.3
20210919085520 20 0.0 0.0 0.00 0.53 0.00 98 1021.3
20210919084515 20 0.0 0.0 0.00 0.53 0.00 98 1021.1
20210919083520 20 0.0 0.0 0.00 0.53 0.00 97 1021.1
20210919082520 20 0.0 0.0 0.00 0.53 0.00 97 1021.1
20210919081520 20 0.0 0.0 0.00 0.53 0.00 98 1021.1
20210919080520 20 0.0 0.0 0.00 0.53 0.00 98 1021.1
20210919075520 20 0.0 0.0 0.00 0.53 0.00 98 1021.2
20210919074536 21 0.0 0.0 0.00 0.53 0.00 98 1021.2
20210919073515 20 0.0 0.0 0.00 0.53 0.00 98 1021.2
20210919072520 21 0.0 0.0 0.00 0.53 0.00 98 1021.3
20210919071520 20 0.0 0.0 0.00 0.53 0.00 98 1021.4
20210919070520 20 0.0 0.0 0.00 0.53 0.00 98 1021.4
20210919065520 20 0.0 0.0 0.00 0.53 0.00 98 1021.4
20210919064517 20 0.0 0.0 0.00 0.53 0.00 98 1021.4
20210919063522 20 0.0 0.0 0.00 0.53 0.00 97 1021.5
20210919062522 20 0.0 0.0 0.00 0.53 0.00 97 1021.6
20210919061522 20 0.0 0.0 0.00 0.53 0.00 98 1021.5